New Rooks County (RCP)
Stockton, KS
Field Elevation: 1999
Lat: 39°20.80N  Long: 99°18.28W
CTAF/Unicom Freq: 122.9000
   
    
Weather Advisories
11/26/2014 08:27 Z
Altimeter 30.01" Hg
Wind 330° @ 7 KT
Gusts --
Visibility 10 SM
Temperature 7° C (45° F)
Dewpoint -2° C (28° F)
Relative Humidity 55%
Density Altitude --
Condensation Altitude 6,400 feet
Wind Chill 5° C (41° F)
  Wind and Runways
Indicated Runway = 36
History
 
 
More Info
All DigiWx sites map
NOAA Forecast
 
Airport IQ 5010
(FLV) Sherman Airfield
(K68) Garnett Municipal Airport
 
about DigiWx
 
FAA Disclaimer: The data displayed is for advisory purposes only and is not to be used for flight planning or operations. For official data, please call (not available) to hear the current automated AWOS voice message.
  METAR RCP 260827Z AUTO 33007KT 10SM 07/M02 A3001